• en Suisse
  • Liste des pays
  • À 7 jours
  • Température de l'eau
  • Carte satellitaire
  • Carte météo
  • Widgets météo
  • user-avatar
    Se connecter

    Météo par heure à Boma

    Ce jour, 21 Février, Mercredi

    Heure Température Précipitation Vent Pression Humidité
    00:00 +23°C° 0,1 mm 0 m/s 698 mmHg 72%
    01:00 +22°C° 0,1 mm 0 m/s 698 mmHg 76%
    02:00 +22°C° 0,4 mm 0 m/s 698 mmHg 81%
    03:00 +21°C° 0,4 mm 0 m/s 698 mmHg 86%
    04:00 +20°C° 0,4 mm 0 m/s 698 mmHg 91%
    05:00 +22°C° 0 mm 1 m/s 698 mmHg 92%
    06:00 +22°C° 0 mm 1 m/s 698 mmHg 93%
    07:00 +23°C° 0 mm 1 m/s 699 mmHg 94%
    08:00 +25°C° 0 mm 1 m/s 699 mmHg 81%
    09:00 +28°C° 0 mm 1 m/s 700 mmHg 69%
    10:00 +31°C° 0 mm 1 m/s 700 mmHg 56%
    11:00 +34°C° 0 mm 1 m/s 700 mmHg 46%
    12:00 +36°C° 0 mm 1 m/s 699 mmHg 36%
    13:00 +37°C° 0 mm 0 m/s 699 mmHg 27%
    14:00 +36°C° 0 mm 0 m/s 698 mmHg 29%
    15:00 +34°C° 0 mm 0 m/s 697 mmHg 31%
    16:00 +34°C° 0 mm 1 m/s 696 mmHg 33%
    17:00 +33°C° 0 mm 1 m/s 696 mmHg 38%
    18:00 +31°C° 0 mm 1 m/s 696 mmHg 42%
    19:00 +29°C° 0 mm 1 m/s 696 mmHg 47%
    20:00 +28°C° 0 mm 1 m/s 696 mmHg 50%
    21:00 +27°C° 0 mm 1 m/s 697 mmHg 53%
    22:00 +26°C° 0 mm 1 m/s 697 mmHg 57%
    23:00 +26°C° 0 mm 1 m/s 698 mmHg 61%

    Demain, 22 Février, Jeudi

    Heure Température Précipitation Vent Pression Humidité
    00:00 +26°C° 0 mm 1 m/s 698 mmHg 65%
    01:00 +25°C° 0 mm 1 m/s 698 mmHg 69%
    02:00 +25°C° 0 mm 1 m/s 698 mmHg 75%
    03:00 +24°C° 0 mm 1 m/s 697 mmHg 81%
    04:00 +23°C° 0 mm 1 m/s 697 mmHg 87%
    05:00 +23°C° 0 mm 1 m/s 697 mmHg 87%
    06:00 +23°C° 0 mm 1 m/s 698 mmHg 87%
    07:00 +23°C° 0 mm 1 m/s 698 mmHg 88%
    08:00 +25°C° 0 mm 1 m/s 699 mmHg 78%
    09:00 +28°C° 0 mm 2 m/s 699 mmHg 68%
    10:00 +30°C° 0 mm 2 m/s 700 mmHg 58%
    11:00 +32°C° 0 mm 2 m/s 699 mmHg 50%
    12:00 +35°C° 0 mm 2 m/s 699 mmHg 43%
    13:00 +37°C° 0 mm 2 m/s 698 mmHg 35%
    14:00 +36°C° 0 mm 1 m/s 697 mmHg 34%
    15:00 +35°C° 0 mm 1 m/s 696 mmHg 34%
    16:00 +35°C° 0 mm 1 m/s 696 mmHg 34%
    17:00 +33°C° 0 mm 1 m/s 696 mmHg 38%
    18:00 +32°C° 0 mm 1 m/s 696 mmHg 42%
    19:00 +30°C° 0 mm 1 m/s 696 mmHg 46%
    20:00 +29°C° 0 mm 1 m/s 697 mmHg 50%
    21:00 +28°C° 0 mm 1 m/s 697 mmHg 54%
    22:00 +27°C° 0 mm 1 m/s 698 mmHg 58%
    23:00 +27°C° 0 mm 1 m/s 698 mmHg 64%

    Après-demain, 23 Février, Vendredi

    Heure Température Précipitation Vent Pression Humidité
    00:00 +26°C° 0 mm 1 m/s 697 mmHg 69%
    01:00 +25°C° 0 mm 1 m/s 697 mmHg 75%
    02:00 +25°C° 0,2 mm 1 m/s 697 mmHg 80%
    03:00 +24°C° 0,2 mm 1 m/s 697 mmHg 85%
    04:00 +23°C° 0,2 mm 1 m/s 697 mmHg 90%
    05:00 +23°C° 0,1 mm 1 m/s 697 mmHg 90%
    06:00 +23°C° 0,1 mm 1 m/s 698 mmHg 91%
    07:00 +23°C° 0,1 mm 1 m/s 698 mmHg 91%
    08:00 +25°C° 0 mm 1 m/s 699 mmHg 80%
    09:00 +28°C° 0 mm 1 m/s 699 mmHg 68%
    10:00 +30°C° 0 mm 1 m/s 700 mmHg 57%
    11:00 +33°C° 0 mm 1 m/s 699 mmHg 49%
    12:00 +36°C° 0 mm 1 m/s 699 mmHg 40%
    13:00 +36°C° 0 mm 0 m/s 698 mmHg 32%
    14:00 +35°C° 0 mm 0 m/s 698 mmHg 33%
    15:00 +36°C° 0 mm 1 m/s 697 mmHg 33%
    16:00 +35°C° 0 mm 1 m/s 696 mmHg 34%
    17:00 +33°C° 0 mm 1 m/s 697 mmHg 39%
    18:00 +32°C° 0 mm 1 m/s 697 mmHg 43%
    19:00 +30°C° 0 mm 1 m/s 697 mmHg 48%
    20:00 +29°C° 0,1 mm 1 m/s 697 mmHg 52%
    21:00 +28°C° 0,1 mm 1 m/s 698 mmHg 56%
    22:00 +27°C° 0,1 mm 1 m/s 698 mmHg 60%
    23:00 +26°C° 0,4 mm 1 m/s 698 mmHg 68%

    24 Février, Samedi

    Heure Température Précipitation Vent Pression Humidité
    00:00 +25°C° 0,4 mm 1 m/s 697 mmHg 77%
    01:00 +24°C° 0,4 mm 1 m/s 697 mmHg 86%
    02:00 +23°C° 0 mm 1 m/s 697 mmHg 88%
    03:00 +23°C° 0 mm 1 m/s 697 mmHg 90%
    04:00 +23°C° 0 mm 1 m/s 697 mmHg 93%
    05:00 +21°C° 0 mm 0 m/s 697 mmHg 93%
    06:00 +21°C° 0 mm 0 m/s 698 mmHg 93%
    07:00 +21°C° 0 mm 0 m/s 699 mmHg 93%
    08:00 +23°C° 0,1 mm 0 m/s 699 mmHg 82%
    09:00 +28°C° 0,1 mm 1 m/s 700 mmHg 71%
    10:00 +30°C° 0,1 mm 1 m/s 701 mmHg 60%
    11:00 +33°C° 0,4 mm 1 m/s 700 mmHg 52%
    12:00 +35°C° 0,4 mm 1 m/s 700 mmHg 44%
    13:00 +37°C° 0,4 mm 1 m/s 699 mmHg 36%
    14:00 +37°C° 0 mm 1 m/s 698 mmHg 36%
    15:00 +34°C° 0 mm 0 m/s 698 mmHg 35%
    16:00 +34°C° 0 mm 0 m/s 697 mmHg 35%
    17:00 +32°C° 0,1 mm 0 m/s 697 mmHg 41%
    18:00 +30°C° 0,1 mm 0 m/s 697 mmHg 48%
    19:00 +27°C° 0,1 mm 0 m/s 697 mmHg 54%
    20:00 +26°C° 0,2 mm 0 m/s 698 mmHg 60%
    21:00 +27°C° 0,2 mm 1 m/s 698 mmHg 65%
    22:00 +26°C° 0,2 mm 1 m/s 698 mmHg 70%
    23:00 +25°C° 0 mm 1 m/s 698 mmHg 74%

    25 Février, Dimanche

    Heure Température Précipitation Vent Pression Humidité
    00:00 +25°C° 0 mm 1 m/s 698 mmHg 79%
    01:00 +24°C° 0 mm 1 m/s 698 mmHg 83%
    02:00 +24°C° 0 mm 1 m/s 698 mmHg 86%
    03:00 +24°C° 0 mm 1 m/s 698 mmHg 90%
    04:00 +23°C° 0 mm 1 m/s 698 mmHg 93%
    05:00 +24°C° 0,1 mm 1 m/s 698 mmHg 93%
    06:00 +24°C° 0,1 mm 1 m/s 699 mmHg 92%
    07:00 +24°C° 0,1 mm 1 m/s 700 mmHg 92%
    08:00 +26°C° 0,1 mm 1 m/s 700 mmHg 83%
    09:00 +28°C° 0,1 mm 1 m/s 701 mmHg 73%
    10:00 +30°C° 0,1 mm 1 m/s 701 mmHg 63%
    11:00 +32°C° 0,1 mm 1 m/s 700 mmHg 51%
    12:00 +35°C° 0,1 mm 1 m/s 700 mmHg 40%
    13:00 +39°C° 0,1 mm 1 m/s 699 mmHg 28%
    14:00 +39°C° 0 mm 1 m/s 698 mmHg 28%
    15:00 +37°C° 0 mm 1 m/s 697 mmHg 27%
    16:00 +35°C° 0 mm 0 m/s 697 mmHg 27%
    17:00 +34°C° 0 mm 1 m/s 697 mmHg 32%
    18:00 +32°C° 0 mm 1 m/s 697 mmHg 37%
    19:00 +30°C° 0 mm 1 m/s 697 mmHg 42%
    20:00 +29°C° 0 mm 1 m/s 697 mmHg 46%
    21:00 +28°C° 0 mm 1 m/s 698 mmHg 50%
    22:00 +27°C° 0 mm 1 m/s 698 mmHg 54%
    23:00 +27°C° 0,2 mm 1 m/s 698 mmHg 63%

    26 Février, Lundi

    Heure Température Précipitation Vent Pression Humidité
    00:00 +26°C° 0,2 mm 2 m/s 698 mmHg 71%
    01:00 +25°C° 0,2 mm 2 m/s 698 mmHg 80%
    02:00 +25°C° 0,1 mm 2 m/s 698 mmHg 82%
    03:00 +25°C° 0,1 mm 2 m/s 698 mmHg 84%
    04:00 +25°C° 0,1 mm 2 m/s 698 mmHg 87%
    05:00 +25°C° 0 mm 2 m/s 699 mmHg 86%
    06:00 +25°C° 0 mm 1 m/s 699 mmHg 85%
    07:00 +25°C° 0 mm 1 m/s 700 mmHg 84%
    08:00 +26°C° 0 mm 1 m/s 700 mmHg 79%
    09:00 +27°C° 0 mm 1 m/s 700 mmHg 74%
    10:00 +28°C° 0 mm 2 m/s 701 mmHg 69%
    11:00 +29°C° 0 mm 2 m/s 700 mmHg 64%
    12:00 +30°C° 0 mm 1 m/s 700 mmHg 59%
    13:00 +31°C° 0 mm 1 m/s 699 mmHg 55%
    14:00 +32°C° 0 mm 1 m/s 699 mmHg 51%
    15:00 +33°C° 0 mm 1 m/s 698 mmHg 47%
    16:00 +33°C° 0 mm 1 m/s 697 mmHg 43%
    17:00 +31°C° 0 mm 1 m/s 697 mmHg 49%
    18:00 +30°C° 0 mm 1 m/s 698 mmHg 54%
    19:00 +28°C° 0 mm 1 m/s 698 mmHg 60%
    20:00 +27°C° 0 mm 1 m/s 698 mmHg 64%
    21:00 +26°C° 0 mm 1 m/s 698 mmHg 68%
    22:00 +25°C° 0 mm 1 m/s 699 mmHg 71%
    23:00 +25°C° 0,2 mm 1 m/s 699 mmHg 75%
    Voir plus